Tracking 28081 objects as of 26-Sep-2023
HD Live streaming from Space Station
objects crossing your sky now

STARLINK-3100

Track STARLINK-3100 now!
10-day predictions
STARLINK-3100 is classified as:


NORAD ID: 49144
Int'l Code: 2021-082Q
Perigee: 577.2 km
Apogee: 581.1 km
Inclination: 70.0 °
Period: 96.1 minutes
Semi major axis: 6950 km
RCS: Unknown
Launch date: September 14, 2021
Source: United States (US)
Launch site: AIR FORCE WESTERN TEST RANGE (AFWTR)
Your satellite tracking list
Your tracking list is empty




NASA's NSSDC Master Catalog

Two Line Element Set (TLE):
1 49144U 21082Q   23268.78262606  .00003293  00000-0  28352-3 0  9993
2 49144  70.0022  33.3493 0002765 263.3352  96.7493 14.98349556111784
Source of the keplerian elements: AFSPC